www.pogodaiklimat.ru

Погода и климат >> Архив погоды >> Россия >> Чукотка >> Мыс Биллингс


АРХИВ ПОГОДЫ на Мысе Биллингс

Время (UTC), дата Ветер
(напр.,м/с)
 
Видим.   Явления Облачность Т
(С)
Тd
(С)
f
(%)
Тe
(С)
Тes
(С)
Комфортность P
(гПа)
Po
(гПа)
Тmin
(С)
Tmax
(С)
R
(мм)
R24
(мм)
S
(см)
12 12.08 СВ 8-10
{10}
200 м туман ?/? +3.2 +3.2 100 -4 -4 1011.5 1011.1
18 12.08 СВ 8-10
{10}
200 м туман ?/? +2.8 +2.8 100 -4 -4 1010.6 1010.2 +2.7
00 13.08 СВ 5
{7}
<50 м слаб. морось {туман} ?/? +3.2 +3.2 100 -2 -2 1009.7 1009.3
06 13.08 С 4
{6}
500 м слаб. морось {туман} ?/? +2.6 +2.6 100 -3 -3 1010.1 1009.7 +3.2 0.0
12 13.08 С 4
{6}
500 м слаб. морось {туман} ?/? +2.2 +2.2 100 -3 -3 1011.4 1011.0
18 13.08 С 3
{5}
500 м слаб. морось {туман} ?/? +2.0 +2.0 100 -3 -3 1012.3 1011.9 +1.9 0.0
00 14.08 С 4
{6}
500 м слаб. морось {туман} ?/? +1.0 +1.0 100 -5 -5 1013.3 1012.9
06 14.08 СЗ 4
{6}
1000 м слаб. ливневой дождь со снегом {морось} 9/9 200 м
[Cb cap]
+1.4 +0.9 96 -4 -4 1013.6 1013.2 +2.0 0.7
12 14.08 СЗ 4
{6}
1000 м слаб. ливневой дождь со снегом 10/10 200 м
[Cb cap]
+0.6 +0.1 96 -5 -5 1013.4 1013.0
18 14.08 СЗ 3
{5}
1000 м слаб. ливневой дождь со снегом 10/10 200 м
[Cb cap]
+0.4 -0.2 96 -4 -4 1012.9 1012.5 +0.3 1
00 15.08 СЗ 4
{6}
20 км {ливн. осадки} 8/8 200 м
[St]
+2.6 +1.0 89 -2 -1 1018.6 1018.2
06 15.08 СЗ 3
{5}
50 км 3/3 600 м
[Sc Ci]
+3.0 +1.2 88 -1 -0 1021.7 1021.3 +3.0 0.0
12 15.08 ЮЗ 3
{5}
4000 м дымка 9/9 600 м
[Sc]
+2.6 +2.1 97 -2 -2 1023.9 1023.5
18 15.08 З 3
{5}
4000 м дымка 8/8 600 м
[Sc]
+3.0 +2.2 94 -1 -1 1025.7 1025.3 +2.4
00 16.08 СЗ 3
{5}
500 м слаб. дождь {туман} ?/? +3.2 +3.2 100 -1 -1 1028.9 1028.5
06 16.08 СЗ 3
{5}
500 м туман {дождь} ?/? +2.6 +2.6 100 -2 -2 1031.7 1031.3 +3.2 1
12 16.08 З 1
{3}
500 м туман ?/? +1.8 +1.8 100 -0 -0 1034.9 1034.5
18 16.08 З 2
{4}
500 м туман ?/? +2.4 +2.4 100 -1 -1 1036.9 1036.5 +1.7
00 17.08 В 4
{6}
4000 м дымка {туман} 9/9 200 м
[St]
+3.3 +2.6 95 -2 -1 1038.9 1038.5
06 17.08 В 9-11
{11}
4000 м дымка 8/8 600 м
[Sc]
+5.6 +4.7 94 -1 -1 1037.7 1037.3 +5.6
12 17.08 ЮВ 8-10
{10}
50 км ясно +5.2 +3.0 86 -1 -1 1037.2 1036.8
18 17.08 ЮВ 8-10
{10}
50 км 3/0
[Ci fib]
+5.5 +3.3 86 -0 -0 1036.3 1035.9 +5.1
00 18.08 В 4
{6}
50 км 9/0
[Ci]
+7.2 +4.0 80 +4 +7 1035.4 1035.0
06 18.08 В 4
{6}
50 км 8/0
[Ci]
+6.1 +3.2 82 +2 +3 1034.9 1034.5 +7.2
12 18.08 В 2
{4}
20 км 9/0
[Ci fib]
+4.0 +2.2 88 +1 +1 1030.5 1030.1
18 18.08 В 3
{5}
20 км 8/0
[Ci fib]
+4.4 +2.4 87 +1 +1 1029.3 1028.9 +4.0
00 19.08 штиль 0
{2}
50 км 9/0
[Ac As]
+9.4 +6.8 84 +9 +12 1026.6 1026.2
06 19.08 СВ 2
{4}
4000 м дымка 8/0
[Ac As]
+5.6 +4.7 94 +3 +3 1025.7 1025.3 +9.4

 

Местоположение метеостанции Мыс Биллингс (Чукотка, Россия): широта 69.88 долгота 175.70 высота над уровнем моря 3 м.

В архиве по умолчанию представлена погода на Мысе Биллингс за последнюю неделю. Архивные данные за месяц целиком и за предыдущие месяцы, начиная с января 2011 года, Вы можете получить, выбрав интересующий диапазон дат из раскрывающегося списка и нажав кнопку "Ввод!".


*Определитесь, кто Вы:
робот инопланетянин человек

Внимание! Время в таблицах - всемирное. Для получения местного времени необходимо прибавить поправку, которая равна 12 ч.

Смотрите также архив погоды в соседних городах и на ближайших метеорологических станциях:

Погода в Паляваам-Глубокой (Чукотка, Россия) (105 км)
Погода в Комсомольской (Чукотка, Россия) (140 км)
Погода в Майской (Чукотка, Россия) (170 км)
Погода в Валькаркае (Чукотка, Россия) (184 км)
Погода на 21 км (Чукотка, Россия) (189 км)
Погода в Певеке (Чукотка, Россия) (212 км)
Погода в Чауне (Чукотка, Россия) (225 км)
Погода на Айон Острове (Чукотка, Россия) (298 км)
Погода в Раучуе (Чукотка, Россия) (357 км)
Погода в Эньмувееме (Чукотка, Россия) (402 км)

Пояснения к столбцам:

Ветер - указаны скорость ветра в м/с - средняя за 10 мин, порывы в срок и между сроками (в фигурных скобках) и направление, откуда дует ветер: С - северный, СВ - северо-восточный, В - восточный, ЮВ - юго-восточный, Ю - южный, ЮЗ - юго-западный, З - западный, СЗ - северо-западный.
Видимость - горизонтальная дальность видимости в метрах или километрах. При видимости от 1 до 10 км при отсутствии осадков обычно наблюдается дымка, при ухудшении видимости до 1 км и менее - туман. В сухую погоду видимость может ухудшаться дымом, пылью или мглою.
Явления - указаны атмосферные явления, наблюдавшиеся в срок или в последний час перед сроком; фигурными скобками обозначены явления, наблюдавшиеся между сроками (за 1-3 часа до срока); квадратными скобками обозначены град или гололедные отложения с указанием их диаметра в мм.
Облачность - указаны через наклонную черту общая и нижняя облачность в баллах и высота нижней границы облаков в метрах; квадратными скобками обозначены формы облаков: Ci - перистые, Cs - перисто-слоистые, Cc - перисто-кучевые, Ac - высококучевые, As - высокослоистые, Sc - слоисто-кучевые, Ns - слоисто-дождевые, Cu - кучевые, Cb - кучево-дождевые. Подробнее классификацию облаков см. в Атласе облаков (PDF).
T - Температура воздуха - температура, измеренная на высоте 2 м над землей.
Td - Температура точки росы - температура, при понижении до которой содержащийся в воздухе водяной пар достигнет насыщения.
f - Относительная влажность воздуха - влажноcть воздуха, измеренная на высоте 2 м над землей.
Te - Эффективная температура - температура, которую ощущает одетый по сезону человек в тени. Характеристика душности погоды. При расчете учитывается влияние влажности воздуха и скорости ветра на теплоощущения человека.
Tes - Эффективная температура на солнце - температура, которую ощущает человек, с поправкой на солнечный нагрев. Характеристика знойности погоды. Зависит от высоты солнца над горизонтом, облачности и скорости ветра. Ночью, в пасмурную погоду, а также при ветре 12 м/с и более поправка равна нулю.
P - Атмосферное давление - приведенное к уровню моря атмосферное давление.
Po - Атмосферное давление - измеренное на уровне метеостанции атмосферное давление.
Tmin - Минимальная температура - минимум температуры воздуха на высоте 2 м над землей.
Tmax - Максимальная температура - максимум температуры воздуха на высоте 2 м над землей.
R - Количество осадков - Количество выпавших осадков за период времени, мм. При наведении курсора мыши на число - период времени, за который выпало указанное количество осадков.
R24 - Количество осадков - Количество выпавших осадков за 24 часа, мм.
S - Снежный покров - Высота снежного покрова, см. При наведении курсора мыши на число - состояние снежного покрова и степень покрытия местности в баллах.